Location: *
(9.9772°S, 113.2358°E)
Time: 09:33:30
(UTC+00:00)

ASTEX 1 - Pass Details

Date: 30 September 2022
Orbit: 718 x 743 km, 92.7° (Epoch: 05 December)

Event Time Altitude Azimuth Distance (km) Brightness Sun altitude
Rises 10:52:10 0° 3° (N) 3,164 6.6 -8.1°
Reaches altitude 10° 10:54:27 10° 1° (N) 2,246 5.9 -8.7°
Maximum altitude 10:59:25 75° 277° (W) 772 3.7 -9.9°
Drops below altitude 10° 11:04:26 10° 191° (S) 2,260 6.1 -11.1°
Sets 11:06:44 0° 189° (S) 3,185 6.9 -11.7°
